TimeCDT,TemperatureF,Dew PointF,Humidity,Sea Level PressureIn,VisibilityMPH,Wind Direction,Wind SpeedMPH,Gust SpeedMPH,PrecipitationIn,Events,Conditions,WindDirDegrees,DateUTC
12:15 AM,30.2,24.8,80,30.00,10.0,WNW,4.6,-,N/A,,Overcast,300,2013-10-23 05:15:00
12:35 AM,30.2,24.8,80,30.00,10.0,WNW,3.5,-,N/A,,Overcast,300,2013-10-23 05:35:00
12:52 AM,30.2,24.8,80,30.00,10.0,WNW,4.6,-,N/A,,Overcast,290,2013-10-23 05:52:00
1:14 AM,30.2,24.8,80,30.00,10.0,WNW,3.5,-,N/A,,Overcast,290,2013-10-23 06:14:00
1:35 AM,30.2,26.6,86,29.99,10.0,WNW,4.6,-,N/A,,Overcast,300,2013-10-23 06:35:00
1:53 AM,28.4,26.6,93,29.99,10.0,NW,4.6,-,N/A,,Overcast,310,2013-10-23 06:53:00
2:15 AM,28.4,26.6,93,29.99,10.0,WNW,4.6,-,N/A,,Overcast,300,2013-10-23 07:15:00
2:35 AM,28.4,24.8,86,29.99,10.0,NW,5.8,-,N/A,,Overcast,310,2013-10-23 07:35:00
2:52 AM,28.4,24.8,86,29.99,10.0,WNW,5.8,-,N/A,,Overcast,300,2013-10-23 07:52:00
3:14 AM,30.2,26.6,86,29.99,10.0,WNW,8.1,-,N/A,,Overcast,300,2013-10-23 08:14:00
3:35 AM,30.2,26.6,86,29.99,10.0,NW,8.1,-,N/A,,Overcast,310,2013-10-23 08:35:00
3:53 AM,30.2,26.6,86,29.99,10.0,NW,4.6,-,N/A,,Overcast,310,2013-10-23 08:53:00
4:15 AM,30.2,26.6,86,29.98,10.0,WNW,5.8,-,N/A,,Overcast,300,2013-10-23 09:15:00
4:35 AM,30.2,24.8,80,29.98,10.0,NW,6.9,-,N/A,,Overcast,310,2013-10-23 09:35:00
4:53 AM,30.2,24.8,80,29.98,10.0,NW,6.9,-,N/A,,Overcast,310,2013-10-23 09:53:00
5:15 AM,30.2,21.2,69,29.98,10.0,WNW,4.6,-,N/A,,Overcast,290,2013-10-23 10:15:00
5:34 AM,30.2,19.4,64,29.98,10.0,WNW,6.9,-,N/A,,Overcast,290,2013-10-23 10:34:00
5:53 AM,30.2,19.4,64,29.98,10.0,WNW,8.1,-,N/A,,Overcast,290,2013-10-23 10:53:00
6:15 AM,28.4,21.2,74,29.99,10.0,WNW,4.6,-,N/A,,Overcast,300,2013-10-23 11:15:00
6:34 AM,28.4,21.2,74,29.99,10.0,NW,5.8,-,N/A,,Overcast,310,2013-10-23 11:34:00
6:53 AM,28.4,23.0,80,29.99,10.0,NW,11.5,-,N/A,,Overcast,310,2013-10-23 11:53:00
7:15 AM,28.4,21.2,74,30.00,10.0,NW,9.2,-,N/A,,Overcast,310,2013-10-23 12:15:00
7:34 AM,28.4,21.2,74,30.00,10.0,NW,10.4,-,N/A,,Overcast,310,2013-10-23 12:34:00
7:53 AM,28.4,21.2,74,30.00,10.0,NW,6.9,-,N/A,,Overcast,310,2013-10-23 12:53:00
8:15 AM,28.4,21.2,74,30.01,10.0,NW,15.0,19.6,N/A,,Overcast,310,2013-10-23 13:15:00
8:35 AM,28.4,19.4,69,30.01,10.0,NW,13.8,-,N/A,,Overcast,310,2013-10-23 13:35:00
8:53 AM,28.4,17.6,64,30.02,10.0,NNW,11.5,18.4,N/A,,Overcast,330,2013-10-23 13:53:00
9:15 AM,28.4,17.6,64,30.03,10.0,NNW,15.0,18.4,N/A,,Overcast,340,2013-10-23 14:15:00
9:35 AM,28.4,17.6,64,30.03,10.0,NNW,15.0,-,N/A,,Overcast,330,2013-10-23 14:35:00
9:53 AM,28.4,17.6,64,30.03,10.0,NNW,13.8,19.6,N/A,,Overcast,340,2013-10-23 14:53:00
10:14 AM,28.4,17.6,64,30.03,10.0,NNW,16.1,20.7,N/A,,Overcast,340,2013-10-23 15:14:00
10:34 AM,28.4,17.6,64,30.03,10.0,North,12.7,17.3,N/A,,Overcast,350,2013-10-23 15:34:00
10:53 AM,30.2,17.6,60,30.04,10.0,NNW,8.1,16.1,N/A,,Overcast,330,2013-10-23 15:53:00
11:14 AM,30.2,17.6,60,30.04,10.0,NW,13.8,17.3,N/A,,Overcast,320,2013-10-23 16:14:00
11:35 AM,30.2,19.4,64,30.04,10.0,NNW,12.7,20.7,N/A,,Overcast,330,2013-10-23 16:35:00
11:53 AM,30.2,19.4,64,30.04,10.0,NW,9.2,-,N/A,,Overcast,310,2013-10-23 16:53:00
12:15 PM,30.2,19.4,64,30.04,10.0,NW,12.7,17.3,N/A,,Overcast,310,2013-10-23 17:15:00
12:34 PM,32.0,19.4,60,30.04,10.0,NW,15.0,-,N/A,,Mostly Cloudy,310,2013-10-23 17:34:00
12:53 PM,32.0,19.4,60,30.04,10.0,NW,13.8,20.7,N/A,,Mostly Cloudy,320,2013-10-23 17:53:00
1:15 PM,33.8,19.4,56,30.04,10.0,NW,13.8,23.0,N/A,,Overcast,320,2013-10-23 18:15:00
1:35 PM,33.8,19.4,56,30.04,10.0,WNW,15.0,21.9,N/A,,Overcast,290,2013-10-23 18:35:00
1:52 PM,33.8,19.4,56,30.04,10.0,NW,13.8,20.7,N/A,,Mostly Cloudy,320,2013-10-23 18:52:00
2:15 PM,35.6,19.4,52,30.04,10.0,NW,13.8,20.7,N/A,,Mostly Cloudy,320,2013-10-23 19:15:00
2:35 PM,33.8,19.4,56,30.04,10.0,NW,11.5,21.9,N/A,,Mostly Cloudy,320,2013-10-23 19:35:00
2:52 PM,33.8,19.4,56,30.04,10.0,North,10.4,-,N/A,,Overcast,350,2013-10-23 19:52:00
3:15 PM,33.8,19.4,56,30.04,10.0,NW,16.1,-,N/A,,Overcast,310,2013-10-23 20:15:00
3:35 PM,33.8,19.4,56,30.04,10.0,NW,12.7,18.4,N/A,,Overcast,310,2013-10-23 20:35:00
3:53 PM,33.8,19.4,56,30.04,10.0,NNW,13.8,17.3,N/A,,Overcast,340,2013-10-23 20:53:00
4:15 PM,33.8,21.2,60,30.05,10.0,NNW,9.2,-,N/A,,Overcast,330,2013-10-23 21:15:00
4:35 PM,33.8,21.2,60,30.05,10.0,NNW,13.8,-,N/A,,Overcast,330,2013-10-23 21:35:00
4:53 PM,32.0,21.2,64,30.05,10.0,NW,13.8,18.4,N/A,,Overcast,320,2013-10-23 21:53:00
5:14 PM,32.0,21.2,64,30.06,10.0,NNW,11.5,16.1,N/A,,Overcast,330,2013-10-23 22:14:00
5:35 PM,32.0,21.2,64,30.06,10.0,NW,9.2,-,N/A,,Overcast,320,2013-10-23 22:35:00
5:53 PM,32.0,21.2,64,30.06,10.0,NNW,11.5,-,N/A,,Overcast,340,2013-10-23 22:53:00
6:14 PM,30.2,19.4,64,30.07,10.0,NW,18.4,24.2,N/A,,Overcast,320,2013-10-23 23:14:00
6:35 PM,30.2,19.4,64,30.07,10.0,NNW,17.3,25.3,N/A,,Overcast,330,2013-10-23 23:35:00
6:53 PM,30.2,19.4,64,30.08,10.0,NNW,16.1,27.6,N/A,,Overcast,330,2013-10-23 23:53:00
7:15 PM,28.4,17.6,64,30.09,10.0,NNW,18.4,26.5,N/A,,Mostly Cloudy,340,2013-10-24 00:15:00
7:35 PM,28.4,19.4,69,30.10,10.0,North,9.2,-,N/A,,Scattered Clouds,360,2013-10-24 00:35:00
7:52 PM,28.4,19.4,69,30.10,10.0,North,5.8,-,N/A,,Mostly Cloudy,350,2013-10-24 00:52:00
8:15 PM,28.4,19.4,69,30.10,10.0,NNW,4.6,-,N/A,,Overcast,340,2013-10-24 01:15:00
8:35 PM,28.4,19.4,69,30.10,10.0,NW,3.5,-,N/A,,Overcast,310,2013-10-24 01:35:00
8:52 PM,28.4,19.4,69,30.10,10.0,Calm,Calm,-,N/A,,Overcast,0,2013-10-24 01:52:00
9:15 PM,28.4,19.4,69,30.10,10.0,West,3.5,-,N/A,,Overcast,270,2013-10-24 02:15:00
9:35 PM,28.4,19.4,69,30.10,10.0,WNW,3.5,-,N/A,,Overcast,290,2013-10-24 02:35:00
9:53 PM,28.4,19.4,69,30.10,10.0,WNW,3.5,-,N/A,,Overcast,290,2013-10-24 02:53:00
10:15 PM,28.4,19.4,69,30.10,10.0,West,3.5,-,N/A,,Overcast,260,2013-10-24 03:15:00
10:34 PM,26.6,19.4,74,30.11,10.0,West,3.5,-,N/A,,Mostly Cloudy,280,2013-10-24 03:34:00
10:53 PM,26.6,21.2,80,30.11,10.0,West,4.6,-,N/A,,Scattered Clouds,280,2013-10-24 03:53:00
11:15 PM,26.6,21.2,80,30.11,10.0,West,4.6,-,N/A,,Clear,280,2013-10-24 04:15:00
11:35 PM,26.6,21.2,80,30.11,10.0,West,5.8,-,N/A,,Clear,280,2013-10-24 04:35:00
11:52 PM,26.6,21.2,80,30.12,10.0,West,4.6,-,N/A,,Scattered Clouds,280,2013-10-24 04:52:00